User: anonymous   Login
Location: Observatoire de Paris
(48.8363°N, 2.3365°E)
Time: 01:02:47
(UTC+01:00)
Language:

Explorer 7 - Orbit

View from above orbital plane
View from above orbital plane
View from above satellite
View from above satellite

Ground track
Ground track

The orbit data is extracted from the following two-line orbital elements,

1    22U 59009A   21209.80245096  .00000131  00000-0  32775-4 0  9998
2    22  50.2851 354.7969 0138338  11.8183 348.5957 14.95634002286133
Epoch (UTC): 28 July 2021 19:15:31
Eccentricity: 0.0138338
inclination: 50.2851°
perigee height: 484 km
apogee height: 676 km
right ascension of ascending node: 354.7969°
argument of perigee: 11.8183°
revolutions per day: 14.95634002
mean anomaly at epoch: 348.5957°
orbit number at epoch: 28613

The dashed part of the orbit path shows where the satellite is in the earth's shadow,  

DLR